Snowfall_Accumulation
0.0 0.0 0.0 0.0 0.0 0.0 0.0 0.0 6.5 0.0 0.0 1.5 1.5 1.3 0.1 0.0 0.0 0.0 0.0 0.0 0.0 0.0 0.0 0.0 0.0 0.0 0.0 0.0 0.0 0.0 0.0 0.0 0.0 0.0 0.0 0.0 0.0 0.0 0.0 2.6 1.4 0.0 0.3 0.8
0.0 0.0 0.0 0.0 0.0 0.0 0.0 0.4 0.2 0.0 0.0 8.7 2.0 0.1 0.1 0.0 0.0 0.0 0.0 0.0 0.0 0.0 0.0 0.0 0.0 0.0 0.0 0.0 0.0 0.0 0.0 0.1 0.0 0.0 0.0 0.0 0.0 0.0 0.0 0.0 0.6 0.7 0.7 0.3
0.0 0.0 0.0 0.0 0.0 0.0 0.0 0.2 11.8 0.0 0.0 0.0 1.6 4.1 1.2 0.0 0.0 0.1 0.0 0.0 0.0 0.0 0.0 0.0 0.0 0.0 0.0 0.0 0.0 0.0 0.0 0.0 0.0 0.1 0.1 0.0 0.1 0.0 0.0 0.8 2.4 0.3 0.1 0.0
0.0 0.0 0.0 0.0 0.0 0.0 0.0 1.8 8.4 0.0 6.0 2.0 0.7 0.6 0.1 0.5 1.9 0.3 0.0 0.2 0.2 0.4 0.4 0.0 0.0 0.0 0.0 0.0 0.0 0.0 0.0 0.0 0.0 0.0 0.0 0.0 0.0 0.0 0.0 0.1 0.0 1.3 0.0 0.0
0.0 0.0 0.0 0.0 0.0 0.0 0.0 23.1 2.3 0.0 0.1 0.1 0.9 1.7 0.8 0.0 0.4 0.1 0.3 2.3 0.4 0.1 0.4 0.0 0.1 0.0 0.0 0.2 0.0 0.0 0.0 0.1 0.0 0.0 0.0 0.0 0.0 0.0 0.0 0.0 0.0 0.0 0.0 0.0
0.0 0.0 0.0 0.0 0.0 0.0 0.0 0.0 0.0 0.7 0.2 0.1 0.5 0.2 0.4 0.8 0.0 0.0 0.0 0.1 0.2 0.0 0.0 0.0 0.0 0.0 0.0 0.0 0.1 0.0 0.0 0.1 0.2 0.0 0.0 0.0 0.0 0.0 0.0 0.0 0.0 0.0 0.2 0.0
0.0 0.0 0.0 0.0 0.0 0.0 0.0 0.0 0.0 3.4 5.0 0.4 0.0 0.0 0.0 0.0 0.1 0.3 0.0 0.0 1.5 0.0 0.0 0.0 0.0 0.0 0.0 0.0 0.0 0.0 0.0 0.1 0.7 0.7 0.1 0.9 0.0 0.0 0.0 0.0 0.0 0.0 0.0 0.0
0.0 0.0 0.0 0.0 0.0 0.0 0.0 0.0 0.0 2.0 6.0 0.1 0.2 0.0 0.1 0.0 0.0 0.3 0.0 0.0 0.0 0.0 0.0 0.4 0.2 0.1 0.1 0.0 0.0 0.0 0.0 0.0 1.6 1.3 1.3 0.0 0.0 0.0 0.0 0.0 0.0 0.0 0.0 0.0
0.0 0.0 0.0 0.0 0.0 0.0 0.0 0.0 0.0 1.6 6.1 1.6 0.0 0.3 0.0 0.6 0.6 0.4 0.0 0.0 0.0 0.0 2.6 2.6 2.0 0.6 0.0 0.0 0.0 0.0 0.0 0.0 0.2 1.4 1.8 1.2 0.0 0.0 0.0 0.0 0.0 0.0 0.0 0.0
0.0 0.0 0.0 0.0 0.0 0.0 0.0 0.0 0.0 0.4 14.0 0.0 0.0 0.2 0.8 0.0 0.7 1.1 0.6 0.6 0.0 0.0 3.2 3.8 1.1 0.9 0.0 0.7 0.6 0.5 1.2 1.5 2.0 1.4 1.9 0.0 0.0 0.0 0.0 0.0 0.2 0.0 0.0 0.0
0.0 0.0 0.0 0.0 0.0 0.0 0.0 0.0 0.0 0.0 4.6 0.1 0.0 0.0 0.0 0.0 0.3 3.0 1.4 2.3 2.8 1.6 2.8 1.1 0.2 0.4 0.0 0.2 0.0 0.0 0.3 1.2 1.2 1.3 0.8 0.7 0.0 0.0 0.0 0.0 0.0 0.0 0.0 0.0
0.0 0.0 0.0 0.0 0.0 0.0 0.0 0.0 0.0 0.0 0.3 0.0 0.0 0.0 0.0 0.0 0.0 0.0 0.0 1.6 2.8 2.8 2.0 0.9 0.2 0.0 0.0 0.3 0.9 0.0 3.9 0.9 0.3 0.1 0.0 0.0 0.0 0.0 0.0 0.0 0.0 0.0 0.0 0.0
0.0 0.0 0.0 0.0 0.0 0.0 0.0 0.0 0.0 0.0 4.2 0.6 0.0 0.0 0.0 0.0 0.0 0.0 0.3 0.0 0.0 2.4 0.2 1.9 0.5 1.2 0.0 0.3 0.3 0.2 0.0 0.0 2.7 1.2 0.0 0.0 0.0 0.0 0.0 0.0 0.0 0.0 0.0 1.3
0.0 0.0 0.0 0.0 0.0 0.0 0.0 0.0 0.0 0.0 0.1 4.1 0.8 0.0 0.0 0.0 0.0 0.0 0.0 0.0 0.0 0.0 0.0 2.0 1.8 0.8 0.1 0.6 0.4 1.1 0.3 0.3 0.3 0.5 0.3 0.0 0.0 0.0 0.0 0.1 0.2 0.2 0.0 0.2
0.0 0.0 0.0 0.0 0.0 0.0 0.0 0.0 0.0 0.0 0.2 2.3 0.5 0.0 0.0 0.0 0.0 0.0 0.0 0.0 0.0 0.0 0.3 1.7 1.0 0.0 1.6 1.8 1.0 2.0 1.0 4.9 4.5 3.1 1.0 2.5 1.8 0.7 0.3 0.4 1.5 0.4 0.0 0.0
0.0 0.0 0.0 0.0 0.0 0.0 0.0 10.4 0.0 0.0 0.0 1.3 2.9 0.0 0.0 0.0 0.0 0.0 0.0 0.0 0.0 0.0 0.5 0.5 0.0 0.0 1.0 4.5 6.2 1.9 0.6 0.3 0.0 4.5 2.6 4.8 3.6 1.8 0.8 0.8 1.5 1.8 1.3 0.8
0.0 0.0 0.0 0.0 0.0 0.0 1.3 1.5 0.0 0.0 0.0 2.0 4.1 0.1 0.0 0.0 0.0 0.0 0.0 0.0 0.0 0.0 0.0 0.0 0.0 0.0 0.0 2.8 5.1 2.0 0.4 0.7 0.7 0.6 0.8 0.8 0.5 0.7 0.4 0.0 0.0 0.0 0.0 0.0
0.0 0.0 0.0 0.0 0.0 0.0 0.1 0.0 0.0 0.0 0.0 0.0 6.8 2.3 0.5 0.0 0.0 0.5 0.0 0.0 0.0 0.0 0.0 0.3 0.0 0.0 0.4 3.5 3.2 0.9 0.2 0.4 0.1 0.0 0.0 0.0 0.0 0.0 0.0 0.0 0.0 0.0 0.0 0.0
0.0 0.0 0.0 0.0 0.0 0.3 0.0 0.0 0.0 0.0 0.0 2.0 0.9 5.0 10.4 1.4 0.8 0.0 0.0 0.0 3.8 0.0 2.3 0.6 0.7 7.2 11.9 7.4 0.8 0.9 0.0 0.1 0.1 0.0 0.0 0.0 0.0 0.0 0.0 0.0 0.0 0.0 0.0 0.0
0.0 0.0 1.1 12.8 0.0 0.0 0.0 0.0 1.4 3.4 0.0 0.0 0.7 0.0 2.4 1.6 4.2 2.5 0.6 0.6 1.2 4.3 1.9 1.2 8.7 9.3 2.5 0.6 0.6 1.1 0.7 0.3 0.1 0.1 0.1 0.0 0.1 0.0 0.1 0.2 0.2 0.1 0.1 0.3
0.0 2.1 4.6 0.0 0.0 0.0 0.0 6.5 5.8 3.0 2.0 0.0 0.7 0.3 1.4 0.0 9.6 4.1 0.4 0.6 0.9 0.7 2.2 2.6 7.7 6.0 3.2 0.2 0.2 0.6 0.9 0.6 0.7 1.2 1.7 1.2 1.2 1.1 0.3 0.8 1.0 0.9 1.3 1.3
0.0 0.0 0.0 0.0 1.7 3.9 7.8 5.6 4.4 3.1 0.8 0.5 0.9 0.8 0.1 2.8 1.5 3.5 1.2 2.5 1.1 3.4 1.3 1.7 6.1 4.3 1.0 0.7 0.5 0.5 1.1 1.7 2.1 1.7 2.1 2.6 2.6 2.7 2.3 2.3 2.4 2.6 2.9 3.3
0.0 0.0 0.6 1.5 4.1 8.0 6.9 3.2 3.2 2.6 1.9 1.6 1.4 4.1 4.7 0.8 0.7 3.5 0.4 7.6 5.3 0.2 5.2 6.1 4.6 2.0 0.6 0.5 0.6 1.0 1.5 1.7 2.0 2.8 3.0 2.6 2.7 2.5 2.5 2.8 3.5 3.6 5.9 8.8
0.0 0.6 5.0 7.4 5.8 6.1 5.8 4.3 2.5 1.8 1.2 1.3 3.4 5.4 7.0 5.2 7.5 5.0 3.3 8.1 5.6 6.5 6.9 5.2 4.9 3.3 2.9 2.3 2.5 1.5 4.1 4.4 4.0 5.5 5.1 5.1 5.4 8.3 9.5 10.2 11.7 10.0 12.0 15.1
2.5 3.3 8.1 6.1 6.7 5.5 5.8 4.8 3.2 1.3 1.8 2.2 3.3 5.3 4.1 6.2 12.2 6.6 3.8 5.2 7.7 5.0 5.3 6.1 6.3 5.1 4.8 5.7 6.3 7.0 8.3 8.7 9.6 11.1 10.0 12.8 12.3 10.0 12.6 13.4 12.4 10.4 10.7 11.0
3.2 7.6 8.3 5.7 4.6 7.0 6.3 4.8 3.7 2.8 4.3 3.6 4.3 7.1 6.0 6.6 4.6 3.9 5.4 3.4 6.5 8.0 7.1 7.5 6.0 7.3 9.1 10.3 10.8 11.7 11.7 11.6 12.1 12.2 10.9 10.6 10.3 9.2 9.9 9.3 8.3 8.4 6.7 6.5
5.7 10.3 10.6 9.5 7.8 9.6 9.4 7.0 5.6 3.7 4.3 6.7 4.4 5.4 7.4 3.1 1.8 2.1 3.8 8.3 12.0 11.6 11.4 9.6 8.9 9.9 12.1 11.9 11.0 11.3 9.8 8.9 8.6 7.7 6.7 6.7 6.2 3.5 2.3 3.1 4.0 2.2 2.1 2.0